Voltar ao catálogo

STARLINK-34624

AtivoComunicaçõesVLEO
NORAD 64805·PAYLOAD·🇺🇸 United States

Lançado Jul 16, 2025 de Vandenberg Space Force Base

Loading…

Próximas Passagens (próximas 24 horas)

TLE

AtualizadoSource: CelesTrak SupGP

Época: Sep 15, 2026, 03:30 UTC

1 64805C 25150R   26258.14631944  .00058981  00000+0  49427-2 0  2587
2 64805  70.0031  16.8764 0003113 267.8060  62.3443 14.98301913    17

Acompanhe STARLINK-34624 em tempo real com AllMySat

Download on the App Store